[[{"header":{"parameterUnit":"m.s-1","parameterCategory":1,"la1":30.2991,"la2":30.254,"lo1":-89.0895,"lo2":-89.0444,"dy":0.0017,"dx":0.0017,"nx":28,"ny":28,"refTime":"2025-11-25T03:00:00:Z","depth":0,"parameterNumber":2,"parameterNumberName":"U-component_of_WINDS"},"data":[0,0,0,0,0,0,0,0,0,0,0,0,0,0,0,0,0,0,0,0,0,0,0,0,0,0,0,0,0,0,0,0,0,0,0,0,0,0,0,0,0,0,0,0,0,0,0,0,0,0,0,0,0,0,0,0,0,0,0.8979,0.8979,0,0.8967,0.8967,0.8967,0.895,0.895,0.8949,0.8949,0.8936,0.8936,0.8936,0,0,0,0,0,0,0,0,0,0,0,0,0,0.8987,0.8987,0.8979,0.8979,0.8979,0.8967,0.8967,0.8967,0.895,0.895,0.8949,0.8949,0.8936,0.8936,0.8936,0,0,0,0,0,0,0,0,0,0,0,0,0,0.898,0.8987,0.8979,0.8969,0.8968,0.8967,0.8967,0.8967,0.895,0.895,0.8949,0.8949,0.8936,0.8936,0.8936,0.8944,0,0,0.8936,0.8936,0,0,0,0,0,0,0,0,0.898,0.898,0.897,0.897,0.8968,0.896,0.8965,0.8959,0.895,0.8957,0.8949,0.8949,0.8944,0.8943,0.8942,0.8944,0.8943,0.8936,0.8936,0.8936,0.8936,0,0,0,0,0,0,0,0.8981,0.898,0.8974,0.897,0.8969,0.8965,0.8964,0.8964,0.8953,0.8956,0.8955,0.8954,0.8944,0.8942,0.8942,0.8943,0.8936,0.8936,0.8936,0.8936,0.8952,0.8953,0,0,0,0,0,0,0.8983,0.8981,0.8975,0.8974,0.8973,0.8965,0.8964,0.8963,0.8953,0.8951,0.8954,0.8953,0.8943,0.8942,0.8941,0.8951,0.8936,0.8936,0.8935,0.8952,0.8952,0.8953,0,0,0,0,0,0,0.8983,0.8983,0.8975,0.8977,0.8976,0.8966,0.8965,0.8963,0.8962,0.8952,0.895,0.8955,0.8942,0.8941,0.8944,0.895,0.8935,0.8935,0.8951,0.8952,0.8953,0.8971,0,0,0,0,0,0,0.8984,0.8983,0.8986,0.8977,0.8976,0.8978,0.8965,0.8963,0.8962,0.896,0.8952,0.895,0.8942,0.8944,0.8944,0.895,0.8935,0.895,0.8951,0.8952,0.8969,0.8972,0.8974,0,0,0,0,0,0.8984,0.8991,0.8986,0.8985,0.8979,0.8978,0.8977,0.8968,0.8962,0.8965,0.8959,0.895,0.895,0.8945,0.8944,0.895,0.895,0.8951,0.8952,0.8968,0.8971,0.8974,0,0,0,0,0,0,0.8999,0.8989,0.8984,0.8988,0.8984,0.8975,0.8979,0.8972,0.8969,0.8968,0.8957,0.8955,0.8959,0.8955,0.8949,0.8959,0.8949,0.895,0.8961,0.8964,0.8966,0.8967,0.8935,0,0,0,0,0,0.9003,0.9004,0.8995,0.8999,0.8998,0.8989,0.8988,0.8982,0.8977,0.8975,0.8969,0.8965,0.8964,0.8964,0.8962,0.8969,0.8967,0.8973,0.8975,0.8977,0.8978,0.8983,0.8985,0.8957,0.8957,0.8957,0,0,0.9011,0.9006,0.9007,0.9002,0.8999,0.9,0.8987,0.8988,0.8989,0.8975,0.8978,0.8974,0.8968,0.8973,0.8975,0.897,0.8986,0.8979,0.898,0.898,0.8984,0.8987,0.8989,0.8957,0.8957,0.8957,0,0,0.9026,0.9022,0.9026,0.9023,0.9018,0.9012,0.9013,0.9006,0.9003,0.9005,0.8995,0.8996,0.8994,0.8991,0.899,0.9006,0.8998,0.9006,0.9018,0.9022,0.9024,0.9026,0.9033,0.9035,0.9007,0.9007,0.9007,0,0.9037,0.9038,0.9029,0.9031,0.903,0.9018,0.9023,0.902,0.9015,0.9014,0.9009,0.9008,0.9003,0.9008,0.9012,0.9011,0.9012,0.9006,0.9025,0.9027,0.9028,0.9034,0.9037,0.9008,0.9008,0.9008,0.9008,0,0.9051,0.9052,0.9056,0.9052,0.9051,0.9054,0.9046,0.9047,0.9041,0.9036,0.9039,0.9034,0.9032,0.9033,0.9026,0.9037,0.9034,0.9027,0.9017,0.9032,0.9038,0.904,0.9009,0.9009,0.9009,0.9008,0,0,0.9074,0.9067,0.9068,0.9067,0.9061,0.9062,0.9065,0.9064,0.9065,0.9062,0.9065,0.9065,0.9059,0.9057,0.905,0.9054,0.9068,0.9047,0.9046,0.9051,0.9081,0.9086,0.9089,0.9064,0.9064,0.9064,0.9081,0,0.9088,0.9093,0.9086,0.9093,0.9094,0.9085,0.9088,0.9085,0.9081,0.9081,0.9077,0.9077,0.9068,0.9068,0.9071,0.9066,0.9074,0.9065,0.9066,0.9066,0.9068,0.9092,0.9097,0.9114,0.9083,0.9084,0.9084,0,0.9105,0.9104,0.9111,0.9107,0.9107,0.911,0.9109,0.9109,0.9107,0.9103,0.9102,0.9095,0.9099,0.9089,0.9094,0.9088,0.9089,0.9086,0.9087,0.9086,0.9076,0.9092,0.9119,0.9121,0.9087,0.9087,0.9087,0,0.9122,0.9123,0.9127,0.9126,0.9121,0.9123,0.9121,0.9118,0.9118,0.9117,0.9117,0.9117,0.9116,0.9116,0.911,0.9103,0.9116,0.9106,0.9114,0.9114,0.9116,0.9116,0.9143,0.9117,0.9116,0.9116,0.9116,0,0.9139,0.9143,0.9135,0.9138,0.9143,0.9136,0.9141,0.9138,0.9136,0.9138,0.913,0.9132,0.9123,0.9125,0.912,0.9125,0.9125,0.9123,0.9121,0.9124,0.9124,0.9123,0.9122,0.9117,0.9117,0.9117,0.9117,0,0.9158,0.9152,0.9157,0.9152,0.9151,0.9156,0.9152,0.9154,0.915,0.9154,0.9154,0.9148,0.9149,0.9143,0.9143,0.914,0.9148,0.9145,0.9149,0.9148,0.9157,0.9157,0.9185,0.9188,0.9159,0.9159,0.916,0,0.9169,0.9173,0.9169,0.917,0.9169,0.9171,0.9171,0.9164,0.9165,0.9163,0.9166,0.9167,0.9168,0.9171,0.9167,0.9168,0.9164,0.9174,0.9164,0.9167,0.9165,0.9165,0.9166,0.9176,0.9177,0.9177,0.9177,0,0.9189,0.9187,0.9188,0.9188,0.9189,0.9189,0.9189,0.919,0.9183,0.9185,0.9187,0.9187,0.9189,0.919,0.919,0.9188,0.9182,0.918,0.9182,0.9185,0.9187,0.9187,0.9155,0.918,0.9179,0.9179,0.9179,0.9179,0.9205,0.9208,0.9207,0.9208,0.9208,0.9208,0.921,0.9207,0.9209,0.921,0.9206,0.9209,0.9207,0.9207,0.9206,0.9209,0.9204,0.9207,0.9207,0.9208,0.921,0.9187,0.9209,0.9208,0.9208,0.9208,0.9208,0,0.9225,0.9224,0.9226,0.9226,0.9228,0.9222,0.9222,0.9223,0.9227,0.9226,0.9227,0.923,0.9232,0.9229,0.923,0.9233,0.923,0.9234,0.9234,0.9234,0.9214,0.9212,0.9236,0.9236,0.9236,0.9236,0.9236,0.9236,0.9236,0.9242,0.9239,0.9245,0.9244,0.9247,0.9247,0.9248,0.9247,0.9251,0.9253,0.9251,0.925,0.9251,0.9253,0.9252,0.9253,0.9258,0.9256,0.9237,0.9235,0.9232,0.9231,0.9258,0.9258,0.9275,0.9276,0.9276]},{"header":{"parameterUnit":"m.s-1","parameterCategory":1,"la1":30.2991,"la2":30.254,"lo1":-89.0895,"lo2":-89.0444,"dy":0.0017,"dx":0.0017,"nx":28,"ny":28,"refTime":"2025-11-25T03:00:00:Z","depth":0,"parameterNumber":3,"parameterNumberName":"V-component_of_WINDS"},"data":[0,0,0,0,0,0,0,0,0,0,0,0,0,0,0,0,0,0,0,0,0,0,0,0,0,0,0,0,0,0,0,0,0,0,0,0,0,0,0,0,0,0,0,0,0,0,0,0,0,0,0,0,0,0,0,0,0,0,-6.6364,-6.6365,0,-6.6489,-6.649,-6.6492,-6.6444,-6.6441,-6.6438,-6.6435,-6.6557,-6.6563,-6.6569,0,0,0,0,0,0,0,0,0,0,0,0,0,-6.6078,-6.6084,-6.6363,-6.6365,-6.6367,-6.6488,-6.649,-6.6492,-6.6444,-6.6441,-6.6437,-6.6434,-6.6555,-6.6562,-6.6569,0,0,0,0,0,0,0,0,0,0,0,0,0,-6.6202,-6.6085,-6.6363,-6.6358,-6.6359,-6.6488,-6.649,-6.6492,-6.6445,-6.6441,-6.6437,-6.6433,-6.6553,-6.6561,-6.657,-6.671,0,0,-6.6597,-6.6601,0,0,0,0,0,0,0,0,-6.6195,-6.6213,-6.6357,-6.6358,-6.6359,-6.6446,-6.6434,-6.6565,-6.6446,-6.6412,-6.6435,-6.643,-6.6523,-6.6534,-6.6567,-6.6716,-6.6721,-6.6598,-6.6603,-6.6607,-6.661,0,0,0,0,0,0,0,-6.6187,-6.6207,-6.6413,-6.6359,-6.6361,-6.6347,-6.636,-6.6459,-6.649,-6.6415,-6.6412,-6.6427,-6.6523,-6.6559,-6.6569,-6.6723,-6.6598,-6.6605,-6.6611,-6.6614,-6.6995,-6.7,0,0,0,0,0,0,-6.6179,-6.62,-6.6409,-6.6416,-6.6265,-6.6356,-6.637,-6.6423,-6.6489,-6.6495,-6.6431,-6.6425,-6.6545,-6.6559,-6.6573,-6.6744,-6.6607,-6.6615,-6.662,-6.6991,-6.6996,-6.7002,0,0,0,0,0,0,-6.6173,-6.6198,-6.6404,-6.6308,-6.6333,-6.6366,-6.6425,-6.6427,-6.6463,-6.6501,-6.6506,-6.6462,-6.6543,-6.6561,-6.6678,-6.6747,-6.6619,-6.6627,-6.6985,-6.6992,-6.6999,-6.7084,0,0,0,0,0,0,-6.6165,-6.6196,-6.6251,-6.6309,-6.6338,-6.6508,-6.6429,-6.6433,-6.6479,-6.6472,-6.6531,-6.6537,-6.6541,-6.6665,-6.6686,-6.6757,-6.6634,-6.6979,-6.6988,-6.6997,-6.7075,-6.7093,-6.7109,0,0,0,0,0,-6.6155,-6.6268,-6.6254,-6.6279,-6.6408,-6.6512,-6.6528,-6.6532,-6.6485,-6.654,-6.6564,-6.6535,-6.6736,-6.6677,-6.6701,-6.6775,-6.6974,-6.6985,-6.6996,-6.7068,-6.709,-6.7108,0,0,0,0,0,0,-6.6213,-6.6275,-6.626,-6.6396,-6.6449,-6.6503,-6.6572,-6.6555,-6.6621,-6.6611,-6.6611,-6.6625,-6.6746,-6.6772,-6.6705,-6.6915,-6.6848,-6.6864,-6.6894,-6.6915,-6.6932,-6.6923,-6.6642,0,0,0,0,0,-6.6242,-6.6323,-6.6372,-6.6487,-6.6515,-6.654,-6.6585,-6.6584,-6.6638,-6.6659,-6.6692,-6.6745,-6.682,-6.6869,-6.6939,-6.7079,-6.7091,-6.7142,-6.7158,-6.7172,-6.7186,-6.7263,-6.7286,-6.7037,-6.7037,-6.7037,0,0,-6.6302,-6.6346,-6.6397,-6.65,-6.6541,-6.6624,-6.6559,-6.6648,-6.6709,-6.6672,-6.6786,-6.6812,-6.687,-6.6999,-6.7057,-6.7024,-6.7258,-6.7186,-6.7196,-6.7203,-6.7276,-6.73,-6.7321,-6.7044,-6.7043,-6.7042,0,0,-6.6454,-6.6496,-6.6597,-6.6641,-6.6705,-6.6721,-6.6745,-6.6803,-6.682,-6.6934,-6.6909,-6.698,-6.7109,-6.7152,-6.7191,-6.7362,-6.7338,-6.7385,-6.7473,-6.7548,-6.7567,-6.7585,-6.7647,-6.7669,-6.7399,-6.7399,-6.7399,0,-6.652,-6.6646,-6.665,-6.6744,-6.679,-6.6764,-6.6866,-6.6907,-6.699,-6.7022,-6.6984,-6.7148,-6.7184,-6.7324,-6.7366,-6.7398,-6.7426,-6.7378,-6.7565,-6.7582,-6.7598,-6.7658,-6.7681,-6.7404,-6.7404,-6.7403,-6.7403,0,-6.6724,-6.6812,-6.6886,-6.6971,-6.7025,-6.7122,-6.714,-6.7195,-6.7189,-6.7209,-6.7326,-6.737,-6.745,-6.7483,-6.7477,-6.7622,-6.76,-6.7564,-6.7496,-6.7628,-6.7683,-6.7706,-6.7412,-6.741,-6.7409,-6.7407,0,0,-6.6915,-6.7004,-6.7031,-6.707,-6.714,-6.7207,-6.7303,-6.7384,-6.7431,-6.749,-6.757,-6.7681,-6.7649,-6.7693,-6.7691,-6.7757,-6.7892,-6.7713,-6.7714,-6.7746,-6.8056,-6.8083,-6.811,-6.7876,-6.7881,-6.7884,-6.8051,0,-6.7074,-6.7245,-6.7253,-6.7408,-6.749,-6.7466,-6.755,-6.7601,-6.7623,-6.7693,-6.7715,-6.7795,-6.7746,-6.7772,-6.7837,-6.7862,-6.7954,-6.785,-6.795,-6.7954,-6.7937,-6.8139,-6.8168,-6.8323,-6.8073,-6.8077,-6.8079,0,-6.7281,-6.735,-6.7515,-6.7576,-6.761,-6.7685,-6.7761,-6.783,-6.7887,-6.7898,-6.7949,-6.7939,-6.8036,-6.7965,-6.8099,-6.8028,-6.8069,-6.8088,-6.8094,-6.8104,-6.8025,-6.8154,-6.8373,-6.8397,-6.8113,-6.8111,-6.8108,0,-6.7406,-6.7539,-6.7655,-6.7689,-6.7763,-6.7816,-6.7849,-6.7903,-6.7952,-6.8018,-6.805,-6.8125,-6.8166,-6.8224,-6.8234,-6.8182,-6.8369,-6.8298,-6.838,-6.838,-6.842,-6.8418,-6.865,-6.8446,-6.8446,-6.8445,-6.8445,0,-6.7582,-6.7684,-6.7713,-6.7784,-6.7898,-6.7905,-6.8017,-6.8045,-6.8094,-6.8169,-6.8152,-6.8223,-6.8232,-6.8305,-6.8313,-6.8424,-6.8442,-6.8453,-6.8454,-6.8455,-6.8454,-6.8482,-6.8472,-6.8451,-6.845,-6.8449,-6.8448,0,-6.774,-6.7764,-6.7889,-6.795,-6.7967,-6.8048,-6.8099,-6.8167,-6.8187,-6.8283,-6.8306,-6.8337,-6.8423,-6.8439,-6.8538,-6.8544,-6.8676,-6.8665,-6.8658,-6.8657,-6.8738,-6.873,-6.8996,-6.9032,-6.8805,-6.8807,-6.8809,0,-6.7852,-6.793,-6.8,-6.8052,-6.8088,-6.817,-6.8221,-6.8231,-6.8285,-6.8358,-6.8417,-6.8501,-6.8569,-6.8707,-6.8737,-6.8814,-6.8805,-6.8893,-6.8816,-6.8816,-6.8808,-6.8804,-6.8812,-6.8908,-6.891,-6.8912,-6.8914,0,-6.8048,-6.8056,-6.8132,-6.8213,-6.8275,-6.8338,-6.8398,-6.844,-6.8459,-6.8519,-6.8608,-6.8662,-6.8765,-6.8849,-6.8926,-6.8957,-6.894,-6.8938,-6.8961,-6.8964,-6.8956,-6.8963,-6.8699,-6.8932,-6.893,-6.8929,-6.8928,-6.8927,-6.8187,-6.8256,-6.8318,-6.8403,-6.845,-6.8507,-6.8575,-6.8605,-6.868,-6.8767,-6.8768,-6.8866,-6.8922,-6.9024,-6.9061,-6.9136,-6.9108,-6.9141,-6.915,-6.9158,-6.9166,-6.8944,-6.915,-6.9149,-6.9149,-6.9148,-6.9148,0,-6.8383,-6.8422,-6.85,-6.8587,-6.8654,-6.8634,-6.8699,-6.8756,-6.8843,-6.8899,-6.8967,-6.907,-6.9152,-6.919,-6.927,-6.9323,-6.9317,-6.9344,-6.934,-6.9348,-6.9186,-6.9159,-6.9348,-6.9348,-6.9348,-6.9348,-6.9348,-6.9348,-6.8493,-6.861,-6.8626,-6.8766,-6.8803,-6.8901,-6.8941,-6.8993,-6.9038,-6.9155,-6.9224,-6.9249,-6.9297,-6.9382,-6.9456,-6.9464,-6.9495,-6.9527,-6.9532,-6.938,-6.9359,-6.934,-6.9314,-6.9533,-6.9533,-6.9687,-6.9689,-6.969]}]]